| time (UTC) | temp C | wind direction | speed KPH | gust KPH | rain 1hr cm | rain 24hr cm | rain mn cm | humidity % | barometer mb |
| 20260506010015 | -17 | 197 | 0.0 | 1.6 | 0.00 | 0.00 | 0.00 | 1005.6 | |
| 20260506004505 | -17 | 196 | 1.6 | 3.2 | 0.00 | 0.00 | 0.00 | 1005.8 | |
| 20260506003114 | -17 | 197 | 1.6 | 3.2 | 0.00 | 0.00 | 0.00 | 1005.8 | |
| 20260506001541 | -17 | 197 | 1.6 | 3.2 | 0.00 | 0.00 | 0.00 | 1005.8 | |
| 20260506000036 | -17 | 197 | 0.0 | 1.6 | 0.00 | 0.00 | 0.00 | 1005.8 | |
| 20260505234534 | -17 | 197 | 0.0 | 1.6 | 0.00 | 0.00 | 0.00 | 1005.9 | |
| 20260505233027 | -17 | 197 | 0.0 | 1.6 | 0.00 | 0.00 | 0.00 | 1005.8 | |
| 20260505231522 | -17 | 197 | 0.0 | 0.0 | 0.00 | 0.00 | 0.00 | 1005.9 | |
| 20260505230025 | -17 | 197 | 1.6 | 3.2 | 0.00 | 0.00 | 0.00 | 1006.0 | |
| 20260505224514 | -17 | 196 | 0.0 | 0.0 | 0.00 | 0.00 | 0.00 | 1006.1 | |
| 20260505223009 | -17 | 196 | 0.0 | 0.0 | 0.00 | 0.00 | 0.00 | 1006.2 | |
| 20260505221506 | -17 | 197 | 0.0 | 0.0 | 0.00 | 0.00 | 0.00 | 1006.2 | |
| 20260505220002 | -17 | 196 | 0.0 | 0.0 | 0.00 | 0.00 | 0.00 | 1006.3 | |
| 20260505214549 | -17 | 197 | 0.0 | 0.0 | 0.00 | 0.00 | 0.00 | 1006.3 | |
| 20260505213019 | -17 | 197 | 0.0 | 0.0 | 0.00 | 0.00 | 0.00 | 1006.4 | |
| 20260505211505 | -17 | 197 | 0.0 | 3.2 | 0.00 | 0.00 | 0.00 | 1006.3 | |
| 20260505210100 | -17 | 197 | 3.2 | 3.2 | 0.00 | 0.00 | 0.00 | 1006.3 | |
| 20260505204555 | -17 | 196 | 3.2 | 3.2 | 0.00 | 0.00 | 0.00 | 1006.3 | |
| 20260505203051 | -17 | 197 | 1.6 | 3.2 | 0.00 | 0.00 | 0.00 | 1006.4 | |
| 20260505201552 | -17 | 197 | 1.6 | 3.2 | 0.00 | 0.00 | 0.00 | 1006.4 | |
| 20260505200042 | -17 | 196 | 4.8 | 4.8 | 0.00 | 0.00 | 0.00 | 1006.3 | |
| 20260505194538 | -17 | 197 | 1.6 | 3.2 | 0.00 | 0.00 | 0.00 | 1006.3 | |
| 20260505193015 | -17 | 197 | 1.6 | 4.8 | 0.00 | 0.00 | 0.00 | 1006.2 | |
| 20260505191511 | -17 | 197 | 3.2 | 6.4 | 0.00 | 0.00 | 0.00 | 1006.0 | |
| 20260505190057 | -17 | 197 | 1.6 | 6.4 | 0.00 | 0.00 | 0.00 | 1005.9 | |
| 20260505184504 | -17 | 195 | 4.8 | 11.3 | 0.00 | 0.00 | 0.00 | 1005.9 | |
| 20260505183108 | -17 | 195 | 6.4 | 12.9 | 0.00 | 0.00 | 0.00 | 1005.9 | |
| 20260505181539 | -17 | 195 | 11.3 | 16.1 | 0.00 | 0.00 | 0.00 | 1005.9 | |
| 20260505180100 | -17 | 195 | 11.3 | 19.3 | 0.00 | 0.00 | 0.00 | 1005.9 | |
| 20260505174555 | -17 | 195 | 8.0 | 11.3 | 0.00 | 0.00 | 0.00 | 1005.9 | |
| 20260505173054 | -17 | 195 | 4.8 | 17.7 | 0.00 | 0.00 | 0.00 | 1006.0 | |
| 20260505171556 | -17 | 195 | 8.0 | 16.1 | 0.00 | 0.00 | 0.00 | 1006.2 | |
| 20260505170042 | -17 | 197 | 8.0 | 20.9 | 0.00 | 0.00 | 0.00 | 1006.2 | |
| 20260505164521 | -17 | 197 | 9.7 | 16.1 | 0.00 | 0.00 | 0.00 | 1006.2 | |
| 20260505163010 | -17 | 197 | 14.5 | 20.9 | 0.00 | 0.00 | 0.00 | 1006.2 | |
| 20260505161536 | -17 | 197 | 11.3 | 22.5 | 0.00 | 0.00 | 0.00 | 1006.2 | |
| 20260505153017 | -17 | 195 | 9.7 | 19.3 | 0.00 | 0.00 | 0.00 | 1006.3 | |
| 20260505151512 | -17 | 195 | 14.5 | 29.0 | 0.00 | 0.00 | 0.00 | 1006.2 | |
| 20260505124600 | -17 | 195 | 14.5 | 25.7 | 0.00 | 0.00 | 0.00 | 1006.4 | |
| 20260505123047 | -17 | 195 | 8.0 | 19.3 | 0.00 | 0.00 | 0.00 | 1006.6 | |
| 20260505121546 | -17 | 195 | 6.4 | 16.1 | 0.00 | 0.00 | 0.00 | 1006.5 | |
| 20260505120100 | -17 | 195 | 8.0 | 17.7 | 0.00 | 0.00 | 0.00 | 1006.6 | |
| 20260505114536 | -17 | 195 | 11.3 | 16.1 | 0.00 | 0.00 | 0.00 | 1006.7 | |
| 20260505113035 | -17 | 195 | 11.3 | 17.7 | 0.00 | 0.00 | 0.00 | 1006.7 | |
| 20260505111528 | -17 | 195 | 9.7 | 16.1 | 0.00 | 0.00 | 0.00 | 1006.6 | |
| 20260505101556 | -17 | 195 | 6.4 | 14.5 | 0.00 | 0.00 | 0.00 | 1006.8 | |
| 20260505100042 | -17 | 195 | 9.7 | 17.7 | 0.00 | 0.00 | 0.00 | 1006.8 | |
| 20260505094542 | -17 | 195 | 8.0 | 12.9 | 0.00 | 0.00 | 0.00 | 1006.8 | |
| 20260505093042 | -17 | 195 | 11.3 | 19.3 | 0.00 | 0.00 | 0.00 | 1006.7 | |
| 20260505091538 | -17 | 195 | 4.8 | 12.9 | 0.00 | 0.00 | 0.00 | 1006.7 | |
| 20260505090044 | -17 | 195 | 6.4 | 12.9 | 0.00 | 0.00 | 0.00 | 1006.7 | |
| 20260505084533 | -17 | 195 | 6.4 | 12.9 | 0.00 | 0.00 | 0.00 | 1006.7 | |
| 20260505083028 | -17 | 195 | 3.2 | 6.4 | 0.00 | 0.00 | 0.00 | 1006.8 | |
| 20260505081524 | -17 | 195 | 3.2 | 9.7 | 0.00 | 0.00 | 0.00 | 1006.7 | |
| 20260505080018 | -17 | 195 | 1.6 | 4.8 | 0.00 | 0.00 | 0.00 | 1006.8 | |
| 20260505074513 | -17 | 195 | 0.0 | 3.2 | 0.00 | 0.00 | 0.00 | 1006.7 | |
| 20260505073012 | -17 | 195 | 1.6 | 4.8 | 0.00 | 0.00 | 0.00 | 1006.7 | |
| 20260505071514 | -17 | 195 | 0.0 | 1.6 | 0.00 | 0.00 | 0.00 | 1006.7 | |
| 20260505070104 | -17 | 195 | 0.0 | 0.0 | 0.00 | 0.00 | 0.00 | 1006.8 | |
| 20260505064555 | -17 | 195 | 0.0 | 1.6 | 0.00 | 0.00 | 0.00 | 1006.8 | |
| 20260505063044 | -17 | 195 | 0.0 | 0.0 | 0.00 | 0.00 | 0.00 | 1006.9 | |
| 20260505061529 | -17 | 195 | 0.0 | 0.0 | 0.00 | 0.00 | 0.00 | 1006.8 | |
| 20260505060013 | -17 | 195 | 0.0 | 3.2 | 0.00 | 0.00 | 0.00 | 1006.7 | |
| 20260505054607 | -17 | 195 | 1.6 | 6.4 | 0.00 | 0.00 | 0.00 | 1006.7 | |
| 20260505053056 | -17 | 195 | 3.2 | 6.4 | 0.00 | 0.00 | 0.00 | 1006.6 | |
| 20260505051537 | -17 | 195 | 3.2 | 4.8 | 0.00 | 0.00 | 0.00 | 1006.5 | |
| 20260505041559 | -17 | 197 | 0.0 | 1.6 | 0.00 | 0.00 | 0.00 | 1006.6 | |
| 20260505040049 | -17 | 197 | 0.0 | 3.2 | 0.00 | 0.00 | 0.00 | 1006.5 | |
| 20260505034511 | -17 | 197 | 1.6 | 4.8 | 0.00 | 0.00 | 0.00 | 1006.4 | |
| 20260505033005 | -17 | 197 | 3.2 | 4.8 | 0.00 | 0.00 | 0.00 | 1006.4 | |
| 20260505031611 | -17 | 197 | 1.6 | 3.2 | 0.00 | 0.00 | 0.00 | 1006.5 | |
| 20260505030030 | -17 | 197 | 0.0 | 3.2 | 0.00 | 0.00 | 0.00 | 1006.6 | |
| 20260505024533 | -17 | 197 | 1.6 | 3.2 | 0.00 | 0.00 | 0.00 | 1006.6 | |
| 20260505023036 | -17 | 196 | 0.0 | 0.0 | 0.00 | 0.00 | 0.00 | 1006.6 | |
| 20260505021600 | -17 | 197 | 0.0 | 0.0 | 0.00 | 0.00 | 0.00 | 1006.7 | |
| 20260505021502 | -17 | 196 | 0.0 | 0.0 | 0.00 | 0.00 | 0.00 | 1006.7 | |
| 20260505020044 | -17 | 197 | 0.0 | 0.0 | 0.00 | 0.00 | 0.00 | 1006.8 | |
| 20260505014544 | -17 | 197 | 1.6 | 1.6 | 0.00 | 0.00 | 0.00 | 1006.8 | |
| 20260505013049 | -17 | 197 | 0.0 | 1.6 | 0.00 | 0.00 | 0.00 | 1007.0 | |
| 20260505011543 | -17 | 197 | 3.2 | 4.8 | 0.00 | 0.00 | 0.00 | 1006.9 |